This is the latest recevied weather packets stored in our database for station/object W8DRH-13. If no packets are shown the sender has not sent any weather packets the latest 10 day(s).
| Time | Temp. | Humidity | Pressure | Rain* | Wind** | Luminosity | Snow |
|---|---|---|---|---|---|---|---|
| 1777830430 | 14.44° C | 43% | 1013.3 hPa | 0 mm | - | 701 W/m² | - |
| 1777830127 | 14.44° C | 46% | 1013.2 hPa | 0 mm | - | 281 W/m² | - |
| 1777829822 | 14.44° C | 46% | 1013.4 hPa | 0 mm | - | 713 W/m² | - |
| 1777829519 | 15° C | 44% | 1013.5 hPa | 0 mm | - | 747 W/m² | - |
| 1777829216 | 14.44° C | 45% | 1013.5 hPa | 0 mm | - | 692 W/m² | - |
| 1777828913 | 14.44° C | 41% | 1013.6 hPa | 0 mm | - | 728 W/m² | - |
| 1777828609 | 14.44° C | 44% | 1013.8 hPa | 0 mm | - | 559 W/m² | - |
| 1777828307 | 14.44° C | 44% | 1013.9 hPa | 0 mm | - | 637 W/m² | - |
| 1777828003 | 13.89° C | 46% | 1013.7 hPa | 0 mm | - | 448 W/m² | - |
| 1777827700 | 13.89° C | 43% | 1013.9 hPa | 0 mm | - | 432 W/m² | - |
| 1777827397 | 14.44° C | 44% | 1014 hPa | 0 mm | - | 834 W/m² | - |
| 1777827093 | 14.44° C | 45% | 1013.9 hPa | 0 mm | - | 724 W/m² | - |
| 1777826790 | 13.89° C | 48% | 1013.9 hPa | 0 mm | - | 760 W/m² | - |
| 1777826487 | 13.89° C | 47% | 1014 hPa | 0 mm | - | 268 W/m² | - |
| 1777826184 | 13.89° C | 48% | 1014.1 hPa | 0 mm | - | 723 W/m² | - |
| 1777825882 | 13.89° C | 50% | 1014 hPa | 0 mm | - | 729 W/m² | - |
| 1777825579 | 13.33° C | 49% | 1014.2 hPa | 0 mm | - | 730 W/m² | - |
| 1777825276 | 13.33° C | 49% | 1014.1 hPa | 0 mm | - | 740 W/m² | - |
| 1777824973 | 13.33° C | 52% | 1014.4 hPa | 0 mm | - | 720 W/m² | - |
| 1777824669 | 13.33° C | 49% | 1014.4 hPa | 0 mm | - | 727 W/m² | - |
| 1777824366 | 12.78° C | 50% | 1014.5 hPa | 0 mm | - | 720 W/m² | - |
| 1777824061 | 13.33° C | 50% | 1014.5 hPa | 0 mm | - | 736 W/m² | - |
| 1777823758 | 13.33° C | 49% | 1014.8 hPa | 0 mm | - | 738 W/m² | - |
| 1777823456 | 12.78° C | 50% | 1014.3 hPa | 0 mm | - | 761 W/m² | - |
| 1777823153 | 12.78° C | 50% | 1014.5 hPa | 0 mm | - | 744 W/m² | - |
* Rain latest hour (hover to see other rain measurements)
** Current wind speed in m/s (hover to see current wind gust speed)